Theta_e
356 356 364 362 364 364 363 363 362 361 362 359 360 360 363 360 362 363 360 359 357 349 352 349 354 349 347 349 348 361 349 353 360 350 357 358 356 359 359 360 359 359 359 360 361 362 362 362 362 362 362 362 362 362 363 363 363 363 363 364 364 364 364 364 365 365 364 365 365 365 364 364 363 362 362 362 363 363 363 363 362 362 362 361 362
356 360 360 361 362 358 359 359 360 367 361 357 365 363 360 362 367 361 358 360 356 356 360 350 344 348 356 347 344 343 355 357 354 348 353 352 355 358 360 360 359 358 360 361 362 364 364 363 363 363 364 364 364 365 365 365 365 365 365 365 364 365 365 364 365 365 365 365 365 365 364 364 364 363 364 364 364 364 364 364 364 363 363 362 362
355 358 361 364 365 363 368 360 359 359 362 361 363 362 367 363 360 362 367 370 360 357 362 346 342 345 350 347 350 358 355 361 351 350 349 352 354 356 360 363 360 361 362 362 363 363 364 364 364 365 366 366 367 367 367 368 368 367 367 366 366 366 367 366 366 366 366 366 366 366 366 365 365 366 365 365 365 365 365 365 365 364 363 360 359
363 359 361 366 364 361 364 362 363 368 366 362 367 369 364 363 363 364 365 364 368 360 356 359 350 351 356 347 350 355 355 354 346 342 343 358 359 356 358 361 362 363 363 363 363 363 364 365 366 366 367 367 367 368 367 368 368 368 368 368 367 367 368 368 368 367 367 367 367 366 366 366 366 366 366 366 366 365 365 365 362 359 358 357 357
373 363 367 366 360 363 360 362 362 372 366 366 366 369 368 369 369 363 365 362 366 361 353 348 359 349 346 346 340 355 358 353 351 347 349 352 357 359 359 360 359 366 366 365 365 366 366 366 366 366 366 367 367 368 368 368 368 368 368 368 368 368 368 368 367 367 367 367 367 367 367 366 367 367 367 366 366 365 364 360 358 356 355 354 354
368 371 363 361 364 365 363 364 372 368 369 370 367 365 364 366 363 367 363 358 355 362 353 350 357 354 350 349 359 360 355 360 348 354 355 347 353 364 363 363 364 362 361 368 368 367 368 367 367 368 368 368 368 368 368 368 369 369 369 369 369 369 368 367 368 367 367 367 367 367 367 367 367 366 366 366 364 363 360 358 355 354 353 353 352
372 373 365 363 359 360 360 364 366 370 371 372 366 373 367 365 366 362 362 361 355 362 363 356 347 356 356 358 358 364 355 352 349 344 350 352 352 352 360 361 361 366 364 365 369 366 367 369 370 368 368 368 368 368 368 368 368 368 368 369 369 369 370 369 369 368 367 367 368 367 368 367 366 366 365 364 364 360 358 356 354 353 353 353 352
372 375 368 368 359 359 367 368 366 374 372 372 370 369 366 367 368 364 363 354 358 357 359 362 355 346 361 358 354 354 358 366 358 346 349 355 363 360 364 366 370 372 369 366 366 366 365 370 372 371 370 369 369 368 367 368 368 368 368 368 369 370 369 370 370 369 369 369 368 368 367 365 366 366 364 364 362 359 358 356 355 354 353 352 351
370 374 375 364 363 362 366 364 369 369 367 367 369 367 369 357 364 366 363 364 357 349 350 358 356 352 351 347 351 367 358 353 347 354 352 359 364 349 357 356 362 364 369 371 366 367 366 367 369 373 373 371 371 369 365 365 367 367 368 369 371 370 370 371 370 369 369 369 368 367 366 366 366 365 365 365 361 359 358 356 355 354 353 352 352
373 375 378 367 363 366 362 371 369 370 371 365 367 365 365 360 366 368 364 361 357 353 347 351 344 342 355 342 360 347 352 361 362 369 356 361 363 357 363 355 359 354 355 353 359 372 365 365 369 372 372 372 373 369 368 368 367 367 368 371 372 371 371 371 370 370 370 368 368 367 367 367 367 366 365 365 361 359 358 357 356 355 354 353 352
371 372 369 368 366 367 371 366 369 374 371 362 365 366 367 362 359 367 370 365 358 356 351 359 342 344 341 342 349 357 354 360 364 356 355 345 357 359 348 366 361 361 368 361 354 359 364 367 365 367 372 367 369 369 368 369 368 368 370 372 371 372 370 370 371 370 371 370 370 368 368 368 367 367 366 364 361 359 358 357 357 355 354 354 353
372 371 371 371 367 369 371 367 370 370 367 363 366 363 365 364 364 358 361 361 359 355 354 364 351 360 360 348 357 367 358 361 357 361 363 349 354 357 350 349 364 352 352 355 360 353 364 370 373 369 366 366 371 370 371 371 370 370 371 372 370 372 371 368 369 370 370 372 371 368 368 368 368 367 365 364 362 360 360 359 357 355 354 354 352
371 371 370 369 370 372 369 368 368 368 367 364 359 362 370 372 368 370 360 361 360 358 353 357 361 358 367 348 353 355 363 367 360 352 353 354 349 354 358 357 356 358 359 363 361 357 347 352 361 363 366 381 374 372 373 373 371 371 372 374 371 370 370 369 367 368 370 370 371 370 369 368 368 367 365 364 363 362 361 360 358 355 354 353 352
373 371 374 372 369 368 369 369 370 368 371 369 366 366 368 363 365 368 369 359 357 351 352 355 358 349 352 350 353 350 356 348 345 345 347 345 345 353 364 356 345 354 358 367 367 359 353 360 366 368 372 374 374 371 374 368 364 371 374 373 370 369 370 370 368 368 368 368 370 370 370 369 369 369 366 365 364 362 361 361 359 356 354 353 351
371 372 369 371 367 366 368 372 368 374 368 369 368 369 373 363 365 363 361 364 358 354 364 360 356 355 354 348 348 347 357 349 348 351 350 349 347 348 350 345 343 352 361 363 360 358 355 363 367 371 372 375 374 376 375 368 372 377 369 370 369 371 372 369 369 368 367 367 368 369 370 370 370 370 368 367 365 363 362 361 359 356 354 353 350
365 364 369 371 372 370 367 369 371 370 369 369 368 366 371 370 365 359 366 358 352 351 354 365 360 358 345 347 348 347 344 348 347 349 349 347 342 345 344 343 351 355 352 355 350 359 366 365 367 373 374 374 376 375 375 368 369 376 374 371 365 363 368 370 367 368 369 368 369 369 370 369 369 369 370 368 367 364 362 361 360 356 353 352 350
365 367 369 371 374 369 366 367 371 373 370 371 371 363 362 365 368 368 364 360 354 354 356 355 359 361 352 347 346 344 344 344 340 352 347 345 344 342 354 351 345 353 352 350 351 355 353 358 368 372 374 375 374 371 366 364 377 388 379 375 373 367 367 370 367 366 366 368 369 370 370 371 370 370 370 370 368 367 363 362 360 356 353 352 350
368 367 369 369 371 373 370 369 373 372 372 371 366 365 366 363 360 363 363 364 361 358 354 361 351 366 366 367 358 349 346 350 345 348 353 349 346 342 356 349 349 355 368 353 352 347 356 358 368 367 366 369 371 369 367 365 368 365 369 383 379 373 372 369 369 368 368 367 368 368 370 371 370 370 370 369 369 367 365 363 360 356 354 352 349
363 368 369 371 372 374 373 371 370 371 375 370 367 359 358 360 365 366 365 368 370 360 360 352 361 363 346 348 353 357 354 352 351 350 352 358 354 345 343 343 344 344 347 354 354 354 363 359 352 355 369 370 372 369 371 369 365 366 373 373 369 373 371 369 368 369 369 369 369 369 369 370 371 371 371 370 370 367 367 364 361 357 354 352 348
366 373 372 368 371 372 373 370 373 366 366 370 367 364 364 365 370 369 374 378 372 370 360 357 355 355 357 355 350 348 358 351 354 354 354 349 353 351 352 351 345 346 351 345 344 348 353 353 356 356 355 362 365 369 368 369 367 364 371 358 371 373 372 369 368 368 369 369 370 370 370 370 371 371 369 370 370 369 367 366 362 358 355 352 348
369 367 369 368 370 372 374 372 370 368 368 365 361 359 361 366 371 373 373 373 376 370 367 369 359 354 367 358 359 358 351 350 350 360 351 348 349 348 348 347 349 352 358 346 346 352 354 359 365 357 365 365 368 366 362 366 366 369 369 359 374 375 374 369 367 369 371 371 370 369 369 369 370 370 370 370 370 370 367 366 362 360 356 352 347
368 370 370 370 369 371 368 364 365 366 364 364 362 361 364 366 369 368 372 370 375 366 372 368 368 362 364 366 366 365 354 352 347 348 348 356 350 346 346 345 352 362 355 349 352 355 355 359 357 348 359 369 369 371 370 366 363 363 361 362 367 373 370 370 367 369 367 367 367 368 368 368 368 369 369 370 370 370 368 365 364 360 357 353 346
362 369 368 364 368 370 363 364 365 369 373 369 368 359 358 360 363 366 367 372 373 371 363 364 374 371 355 366 365 351 360 350 351 346 342 347 346 349 342 345 341 342 355 353 359 353 356 360 352 348 366 364 374 376 372 368 363 363 361 361 361 370 370 369 368 368 366 363 366 366 366 366 366 367 368 369 369 369 369 367 364 362 358 353 346
371 364 362 358 367 368 369 364 372 368 368 372 369 368 362 365 367 376 369 373 375 378 366 363 357 365 361 355 348 347 351 347 344 345 341 348 352 345 349 353 347 342 350 361 351 350 358 350 357 360 358 355 365 383 379 365 367 361 364 358 360 367 370 372 369 367 363 362 361 362 363 363 363 364 365 365 365 365 365 365 365 363 360 355 347
362 362 359 362 368 373 374 370 371 376 373 370 376 367 369 366 368 361 367 368 375 372 372 365 359 361 356 357 353 352 353 349 349 351 348 348 351 354 348 346 346 352 353 355 356 352 355 351 364 361 361 364 363 383 370 355 357 367 365 359 357 367 369 369 370 364 361 360 360 359 358 361 361 362 361 362 363 363 364 364 363 363 361 357 349
359 364 366 362 365 366 369 372 374 374 373 369 372 376 373 373 368 369 361 369 373 370 369 362 366 362 364 361 355 356 354 352 354 349 353 353 349 350 356 356 343 344 361 362 362 348 356 361 360 371 368 365 363 365 360 353 354 358 361 357 355 358 367 367 368 366 364 361 360 359 359 361 362 363 362 361 362 363 363 364 363 362 361 358 352
367 365 366 366 365 370 368 367 369 372 374 372 363 371 376 368 379 370 373 370 371 368 369 360 353 354 364 363 366 354 352 354 351 356 355 349 355 352 353 353 347 348 349 355 355 350 344 364 353 360 369 372 369 365 364 360 358 358 359 365 363 359 362 363 364 363 363 361 360 359 359 360 363 361 361 362 361 362 363 363 363 362 361 359 353
366 367 363 366 365 368 368 367 370 368 370 372 372 371 372 370 375 374 370 361 366 367 366 362 359 360 356 363 373 352 359 355 355 354 359 357 352 359 362 357 355 347 352 350 348 349 346 349 357 363 364 365 367 365 364 361 356 360 363 368 365 367 358 361 359 359 359 356 357 359 359 359 360 360 361 361 362 361 362 363 363 363 362 360 354
361 366 361 369 368 368 367 362 370 371 371 371 369 371 374 370 366 370 366 361 373 369 366 367 366 355 357 357 361 366 362 369 363 360 363 367 369 364 367 363 358 354 350 349 351 350 352 349 342 364 361 361 360 364 363 361 358 358 357 369 366 359 361 354 355 355 356 357 357 357 356 356 357 359 361 361 360 360 360 359 360 362 362 359 353
358 358 364 362 370 369 368 369 367 367 368 365 368 369 371 369 370 373 370 375 371 371 370 366 364 366 359 363 360 362 362 360 358 356 370 374 369 363 363 365 367 358 356 350 351 355 351 351 346 360 363 365 366 363 358 356 359 358 359 367 362 357 353 349 352 352 354 354 355 354 355 355 355 357 357 356 356 357 357 358 358 359 360 360 354
366 365 363 363 365 365 368 366 369 371 368 367 371 372 371 370 368 370 369 373 371 368 371 368 360 363 372 360 366 367 367 362 360 356 362 368 365 362 367 368 368 364 357 357 350 361 357 349 350 350 352 363 356 355 353 370 355 356 361 366 362 358 353 353 351 350 350 352 353 352 352 352 351 351 350 351 353 354 357 357 357 357 358 360 356
355 362 361 362 363 360 359 359 361 362 366 363 365 368 370 369 366 360 366 370 368 369 364 363 357 362 365 362 366 369 366 367 365 364 362 365 367 363 360 363 368 366 367 361 354 353 362 354 352 352 351 356 365 362 358 356 353 355 373 358 364 359 358 354 349 348 350 351 352 351 349 346 344 344 347 351 352 354 355 357 357 357 357 358 357
359 358 360 361 362 362 359 363 359 366 366 367 366 371 371 369 371 371 369 370 368 367 370 365 360 361 368 363 366 364 371 365 367 359 360 362 362 367 365 367 364 363 365 362 357 355 359 361 357 354 353 355 351 364 355 354 352 361 356 356 362 354 354 351 351 346 346 351 351 349 347 345 343 343 345 348 350 353 355 357 357 356 356 356 355
359 356 361 355 359 361 357 361 363 363 366 372 363 365 368 369 365 358 359 368 368 366 369 372 371 361 365 370 368 364 366 364 362 355 361 358 353 360 367 362 361 362 366 362 360 358 354 361 364 365 357 357 352 362 356 355 354 361 355 354 352 351 348 351 350 348 347 351 349 347 347 344 342 342 344 346 349 351 352 352 352 350 352 353 350
357 359 358 356 365 365 363 365 366 362 366 365 366 365 366 368 366 361 359 363 364 361 360 364 362 366 362 366 362 362 357 360 362 362 358 359 361 358 354 356 362 364 361 364 364 357 354 357 362 356 358 360 359 357 358 357 362 358 358 355 350 350 352 352 354 351 346 347 348 346 345 344 343 343 343 343 345 346 347 347 345 344 346 345 341
353 359 361 360 366 370 363 366 367 367 369 367 366 363 367 366 367 369 367 367 363 363 362 361 360 363 363 367 359 359 365 363 365 368 365 360 368 369 362 367 376 370 371 369 367 361 359 355 365 361 362 360 360 360 358 356 355 355 354 357 359 353 354 353 351 350 351 345 346 346 345 344 342 341 341 340 339 339 341 342 341 339 338 340 339
351 353 361 362 364 369 358 361 364 368 365 366 366 360 364 363 367 362 364 365 364 365 364 366 363 367 366 364 364 366 366 365 364 362 358 364 361 361 361 368 362 365 363 362 364 365 361 358 359 363 364 362 361 359 361 356 357 355 361 357 355 355 358 355 349 351 348 346 345 344 343 343 343 342 341 339 338 337 338 338 338 337 337 336 334
353 350 354 354 356 366 366 364 363 365 366 366 367 365 360 362 362 363 364 366 362 364 363 360 362 364 360 363 362 364 361 361 358 364 365 359 359 358 359 367 363 360 365 366 365 362 362 360 358 357 363 357 356 366 362 357 352 349 351 356 359 360 362 357 355 351 350 350 352 354 348 345 345 339 339 340 338 337 336 337 339 337 334 331 328
349 348 347 355 360 360 366 363 360 363 365 362 367 367 364 362 363 363 359 361 365 362 360 359 357 358 358 358 362 361 361 364 359 359 362 361 359 361 365 366 369 369 364 361 364 363 361 358 357 357 355 361 359 350 354 358 356 354 352 353 350 355 362 364 360 356 353 354 354 350 349 348 348 348 342 338 337 337 336 336 336 335 333 329 325
346 346 347 347 352 355 359 361 363 365 366 364 368 368 366 363 359 362 361 361 361 358 359 362 357 354 355 357 354 356 362 369 365 367 366 363 368 366 366 371 368 367 363 361 362 361 359 356 356 353 357 354 356 358 357 361 360 358 357 348 343 353 356 359 356 355 358 359 357 356 352 352 352 352 348 349 349 344 337 335 338 340 336 331 327
345 347 347 346 348 351 355 361 363 360 356 360 363 363 361 366 362 359 358 358 359 359 359 356 357 360 359 356 352 353 361 363 364 366 367 364 358 364 370 368 367 366 366 364 361 362 359 356 354 357 354 353 355 356 356 350 348 347 352 357 354 355 355 355 357 360 360 356 356 357 359 359 358 358 360 360 362 358 356 342 344 342 338 331 329
360 360 363 359 349 347 350 353 356 356 354 353 358 365 363 363 364 360 358 364 361 361 362 361 358 356 355 355 355 359 368 367 370 370 372 373 365 360 366 366 369 366 363 360 359 358 358 357 353 351 348 348 347 347 348 350 350 356 356 356 355 356 357 357 358 364 364 361 359 358 361 363 361 360 362 360 360 359 361 351 355 348 340 332 331
367 366 365 359 353 349 345 346 350 349 349 344 335 339 348 358 362 364 364 367 365 364 360 361 362 362 359 358 359 362 368 366 370 371 373 368 371 366 367 364 366 366 358 357 358 358 356 354 354 351 350 350 352 354 353 354 360 357 357 358 358 358 356 353 350 356 375 362 360 358 357 363 364 360 361 361 361 357 351 359 347 345 339 335 333
364 360 358 359 360 356 349 349 349 351 345 333 330 333 336 337 352 365 358 360 359 361 360 356 356 356 355 354 351 351 351 355 357 370 371 369 367 367 364 365 365 365 363 360 358 356 356 353 353 353 353 353 356 357 357 359 358 356 359 359 357 356 354 353 352 350 358 363 357 355 356 363 363 360 359 360 360 358 354 356 343 340 338 336 333
359 359 357 357 359 353 348 349 352 351 345 329 329 330 331 333 337 356 358 361 354 353 356 358 355 352 349 349 349 351 353 358 356 355 367 371 368 363 365 366 368 364 349 347 350 356 356 355 354 352 353 356 356 359 361 361 362 356 356 354 354 353 353 351 351 352 355 360 357 355 355 359 359 357 355 356 358 357 356 343 338 340 338 336 334
358 359 358 361 361 354 351 352 354 349 343 329 326 328 329 331 334 347 360 360 357 356 359 356 352 354 352 352 351 350 353 355 353 352 365 367 365 365 365 367 367 367 367 353 350 347 351 351 352 351 355 359 358 362 367 367 358 355 354 352 355 354 353 353 355 355 358 360 355 355 353 355 356 354 353 356 358 359 360 353 336 337 337 335 333
356 357 360 360 356 351 352 355 355 349 333 321 323 324 325 328 333 351 361 360 360 360 357 356 354 353 356 356 356 355 356 356 346 344 354 358 363 357 363 362 361 364 361 359 359 355 356 355 356 357 360 363 363 360 359 360 358 358 357 355 356 356 356 358 358 359 358 363 362 361 349 353 358 354 356 357 358 359 361 350 346 341 336 334 333
355 358 359 357 353 351 350 352 351 350 333 318 318 320 322 325 333 357 361 362 360 356 355 354 355 356 355 354 355 356 359 349 336 331 340 354 360 360 360 359 360 358 361 365 350 352 361 360 360 358 357 357 349 354 355 355 355 357 358 357 357 357 355 354 352 353 352 357 358 356 354 354 359 354 355 358 359 358 359 359 348 343 337 335 334
353 353 354 351 352 351 349 350 349 341 332 320 316 316 318 321 342 357 360 360 359 357 356 355 355 357 358 358 358 357 352 339 330 322 327 350 357 357 358 356 357 357 359 359 346 339 339 335 333 335 333 331 331 330 329 330 340 349 353 351 351 354 352 349 350 351 352 355 357 363 357 353 356 354 354 357 357 355 356 358 362 344 335 335 333
347 351 352 349 351 348 348 347 345 336 330 321 314 314 314 317 335 353 359 358 355 357 356 355 355 356 353 355 350 342 336 332 320 320 322 343 351 352 352 350 351 352 355 351 348 346 340 335 336 335 333 332 332 332 333 332 332 339 349 350 354 355 351 351 348 350 353 354 361 361 354 352 355 356 353 355 355 358 356 358 361 357 334 331 328
347 350 352 348 348 348 349 346 343 337 332 326 314 312 313 314 331 350 358 356 352 354 354 354 354 356 347 337 338 334 331 326 316 317 320 334 340 341 343 342 342 347 339 332 334 334 338 337 339 342 344 345 352 354 355 350 345 351 352 356 358 357 353 352 351 351 348 352 359 361 352 352 353 354 354 350 348 354 360 361 359 364 363 362 363
Wind_Speed
4 4 2 2 2 2 2 2 2 4 3 4 3 4 4 2 3 3 2 4 0 3 3 3 3 4 4 4 3 2 4 3 2 5 8 5 5 6 8 7 5 5 5 4 5 6 7 7 8 9 9 10 10 11 11 11 12 12 12 12 12 13 13 13 13 13 13 13 13 13 13 13 13 14 14 15 16 16 15 15 15 16 16 17 17
5 4 3 3 4 4 4 5 3 3 2 5 3 3 7 5 0 3 2 2 3 3 3 3 3 4 1 5 4 5 3 3 3 4 7 6 5 5 10 8 7 7 6 6 7 7 7 8 9 9 10 10 11 11 12 12 12 12 12 12 13 13 13 13 13 13 13 13 13 12 12 13 14 15 15 15 15 15 15 15 14 14 14 14 14
5 5 4 3 2 3 1 4 3 3 5 2 3 2 1 2 3 3 2 1 4 4 2 4 5 5 3 3 3 2 3 2 3 5 7 6 5 5 6 11 10 10 9 9 9 8 8 8 8 9 10 11 11 11 12 12 13 13 13 13 13 13 13 12 13 13 13 13 12 12 12 12 13 14 13 13 14 14 13 12 12 12 11 11 11
3 4 3 2 2 3 3 3 3 2 3 2 3 4 3 3 5 4 3 4 2 3 4 2 3 2 3 3 3 3 3 2 1 7 4 4 7 5 5 6 11 11 11 11 10 10 9 8 9 10 10 11 11 12 12 13 13 13 13 13 12 12 12 11 10 11 11 10 10 11 11 11 12 12 12 11 11 11 11 12 11 11 11 11 11
3 5 2 2 3 3 3 4 2 2 3 3 4 1 1 2 1 2 4 5 1 2 4 5 1 3 5 5 4 1 2 3 4 5 5 4 5 6 5 5 5 9 11 10 10 10 9 10 10 10 10 10 10 11 11 12 12 12 11 11 11 11 10 10 9 9 9 9 9 9 9 9 10 10 10 9 9 10 10 11 12 12 13 13 12
4 4 3 2 3 3 2 2 2 3 3 2 3 3 3 2 3 2 4 6 4 2 3 3 1 2 3 4 2 2 3 0 4 3 3 4 6 2 4 5 4 4 5 10 10 9 11 10 10 10 10 9 9 9 10 10 10 10 10 10 10 9 8 8 8 8 7 7 7 7 7 8 8 7 7 8 8 9 9 10 11 12 12 13 13
3 1 2 3 3 3 3 4 2 2 2 2 1 2 0 2 2 3 3 3 3 0 1 2 4 3 3 3 2 1 3 4 3 4 4 5 4 3 2 2 4 6 5 4 7 11 11 10 10 9 9 8 8 7 7 8 7 8 8 8 8 7 7 7 7 6 6 6 7 6 6 5 5 6 7 7 7 8 8 9 10 11 12 12 12
3 2 3 1 3 3 2 3 1 1 3 2 1 2 2 2 2 2 3 6 6 1 2 1 3 3 1 3 4 5 2 1 2 2 5 3 2 3 2 2 2 2 5 5 4 6 11 8 8 8 8 7 7 5 5 5 5 5 6 6 6 6 5 6 6 6 6 6 6 6 5 5 5 6 6 6 7 7 8 9 9 10 11 12 13
3 3 3 2 3 3 3 2 3 3 3 3 2 3 3 3 3 2 3 2 4 7 3 1 2 3 3 3 3 1 3 5 4 2 5 2 0 4 2 3 3 3 1 4 5 4 7 9 8 7 6 7 7 5 3 2 3 3 4 4 4 3 3 4 4 5 5 5 6 6 6 6 5 5 5 6 7 7 8 9 9 10 11 12 13
3 3 3 2 4 3 3 1 3 3 1 2 2 1 2 1 1 3 3 3 5 3 5 3 6 3 3 4 3 3 4 2 3 3 4 2 1 3 1 2 0 3 2 3 0 3 3 6 8 5 6 5 7 6 5 4 3 2 2 2 2 2 2 2 3 4 4 4 5 5 6 6 6 5 5 6 7 8 9 9 10 10 11 12 13
2 3 3 2 2 2 2 4 1 3 1 1 1 2 1 2 2 3 5 5 4 2 3 1 4 4 6 5 3 4 4 2 3 3 3 4 1 2 4 1 1 2 1 3 5 2 3 4 4 3 4 6 7 7 5 5 4 3 2 1 1 1 2 2 2 3 4 4 4 5 6 6 6 6 6 6 7 8 9 10 10 11 11 12 13
2 4 2 3 3 2 1 3 1 3 3 3 3 2 3 2 3 3 5 6 5 3 3 1 3 1 3 4 3 1 3 1 3 2 2 4 3 1 3 3 0 4 3 3 3 3 2 3 3 2 1 4 5 6 3 2 4 4 3 3 2 1 1 2 2 3 4 5 5 5 6 6 7 6 6 7 8 9 10 10 11 11 11 12 13
3 4 2 2 1 2 4 2 2 4 2 1 5 3 2 2 2 2 5 6 2 3 5 4 3 2 2 5 4 3 2 1 1 3 2 2 4 4 1 2 3 3 3 2 1 2 6 5 3 3 1 2 2 6 4 5 6 5 4 4 3 3 2 2 2 2 4 5 6 6 7 7 8 7 6 7 8 9 10 10 10 11 11 12 12
3 2 2 3 2 1 4 1 2 2 3 3 2 1 2 2 2 2 3 4 3 4 6 4 2 2 1 2 3 5 4 5 4 6 3 3 5 4 2 0 3 2 3 2 1 2 5 4 3 2 1 0 1 1 2 4 5 8 5 6 5 5 5 4 3 3 4 6 6 7 8 8 9 8 7 7 8 9 10 10 10 11 11 11 11
4 4 3 2 3 2 2 4 2 2 4 3 3 2 1 2 2 3 4 3 3 2 3 2 2 3 5 3 2 2 5 5 4 5 3 6 4 2 5 3 5 3 2 1 2 4 3 2 2 2 0 1 2 2 3 4 4 7 6 7 6 6 5 6 5 5 5 6 7 8 8 9 9 9 8 8 9 9 9 9 9 10 10 10 10
5 5 2 4 4 3 1 2 3 3 3 2 3 3 1 0 2 2 1 3 4 1 1 1 3 4 3 2 1 1 2 3 3 6 6 7 6 2 3 4 2 2 3 3 5 3 2 3 1 0 1 0 1 2 4 4 5 7 8 7 8 7 7 7 7 6 6 6 8 9 9 9 10 10 10 9 9 9 9 9 8 9 9 9 9
4 4 2 4 2 4 3 4 2 1 3 3 1 3 1 2 2 2 3 2 3 3 1 2 3 4 6 3 1 4 1 3 2 4 4 3 3 4 1 2 2 4 2 4 4 3 5 3 1 2 2 1 2 2 4 5 2 2 4 8 7 7 6 7 7 7 6 7 8 9 10 9 9 10 10 10 10 10 9 9 7 7 8 8 8
3 3 4 3 2 2 4 2 2 2 2 1 2 3 3 2 1 0 2 1 3 3 4 2 4 3 4 3 3 3 4 2 1 2 3 2 3 3 2 2 2 3 1 3 2 4 3 3 2 2 3 1 1 3 3 4 4 4 3 3 6 5 6 7 8 8 7 7 8 10 11 10 10 11 11 11 11 11 10 8 7 6 7 6 7
4 3 4 4 2 3 2 3 1 2 2 3 1 3 2 1 2 1 2 3 1 3 2 4 5 1 4 5 5 3 5 3 2 1 1 4 3 5 1 2 3 3 1 0 1 2 1 2 6 5 2 1 2 2 2 2 4 7 3 3 3 4 5 7 8 8 6 7 8 10 11 11 11 11 11 10 11 11 9 8 6 6 5 5 5
1 4 4 4 2 2 1 2 1 2 3 1 2 1 2 3 0 2 3 2 1 1 3 5 4 3 5 6 3 3 2 2 2 2 1 1 3 5 2 2 5 2 2 2 4 2 3 4 0 1 4 3 3 3 2 3 3 4 1 2 3 4 5 7 7 6 5 6 8 10 11 12 11 11 11 11 10 10 9 7 7 6 5 4 3
1 2 3 2 3 2 1 1 2 3 2 3 4 3 3 0 2 1 2 1 2 1 2 2 2 3 3 3 3 3 1 1 4 1 2 2 1 1 3 3 4 2 2 4 3 2 1 1 2 2 2 3 2 2 3 3 5 4 1 1 1 3 5 5 5 4 4 6 8 9 11 11 12 12 12 12 11 10 10 8 8 6 5 4 1
2 2 3 2 2 2 2 2 2 3 2 1 1 3 2 1 1 1 2 2 2 3 2 3 1 3 1 2 2 2 3 2 4 3 4 1 1 1 2 2 2 3 3 3 3 2 2 1 2 6 1 1 0 1 2 3 5 3 3 6 4 5 4 5 6 5 5 6 7 9 10 11 11 12 12 12 12 10 10 9 8 7 5 3 0
3 3 3 4 2 3 2 3 2 2 1 2 3 1 2 0 2 1 0 2 1 1 4 4 1 2 4 3 0 3 4 4 5 9 5 2 1 2 3 3 3 4 2 2 2 4 2 1 2 3 2 3 1 2 1 3 6 1 5 9 6 7 4 5 7 6 5 6 7 8 9 10 11 11 12 12 12 11 10 9 8 7 6 4 2
2 2 4 5 4 2 2 1 1 2 1 1 2 2 2 2 1 1 2 2 2 1 2 3 4 2 2 6 5 1 6 7 5 2 2 9 1 3 2 2 4 5 1 1 4 4 2 4 1 2 3 3 2 0 1 3 3 4 4 6 5 7 6 4 6 6 6 7 9 9 8 9 10 10 11 12 12 11 10 9 7 7 6 5 3
3 4 4 4 3 2 2 2 2 1 3 1 0 2 3 1 2 2 3 3 1 2 1 2 4 0 1 2 5 4 6 4 2 4 2 7 3 1 1 3 2 0 2 1 1 3 3 3 2 3 3 3 3 2 3 4 3 3 5 6 5 7 7 4 5 8 8 9 9 10 8 8 8 8 9 10 10 10 10 8 7 7 6 6 4
5 3 2 5 4 4 4 3 1 1 1 3 2 2 3 3 3 2 3 2 3 3 2 3 2 3 1 2 4 6 6 5 5 4 4 2 2 3 2 2 4 3 1 1 1 3 1 3 2 1 2 3 3 3 3 4 5 3 6 5 8 6 7 7 8 9 9 9 10 10 10 9 9 8 8 9 10 10 9 8 7 6 6 6 6
4 4 3 3 3 3 4 5 4 3 3 2 4 2 2 2 1 2 2 4 3 2 2 4 3 2 1 1 2 6 5 4 4 4 4 2 4 4 3 2 2 3 3 3 2 3 3 0 2 2 2 3 3 4 5 4 7 5 6 4 3 2 8 9 10 10 10 9 9 10 11 10 9 9 8 9 10 10 9 8 7 6 6 6 6
2 4 4 4 5 5 4 4 3 4 3 3 2 2 3 3 1 1 3 2 2 2 3 2 3 3 1 2 1 1 7 7 6 6 5 5 5 4 1 2 1 1 2 3 3 3 3 3 2 2 3 3 4 4 6 6 6 4 6 3 3 2 8 10 11 11 11 10 8 8 10 11 10 10 9 8 9 9 9 8 7 6 6 6 7
4 3 5 3 5 5 4 5 5 3 3 3 3 3 3 2 4 5 3 3 2 1 2 2 4 5 2 2 3 2 2 1 2 5 4 4 2 3 2 2 3 1 1 2 2 2 4 7 5 2 4 4 6 5 4 3 5 8 5 3 2 5 6 13 14 13 13 11 9 7 10 11 11 11 9 8 8 8 8 7 6 5 5 6 8
5 4 3 4 3 4 3 2 4 4 3 3 3 3 3 3 1 2 2 1 1 2 2 2 3 2 3 1 2 2 2 4 2 2 1 2 1 3 3 1 2 4 2 2 2 2 4 5 6 2 3 4 5 5 5 6 9 8 4 1 3 4 7 11 15 16 12 13 10 8 10 10 11 10 8 7 7 7 5 5 5 4 5 6 9
4 3 4 4 4 4 5 5 4 4 3 3 2 2 3 3 3 3 2 1 2 2 2 3 4 3 1 1 1 1 2 3 3 5 4 4 3 5 3 3 3 2 3 3 2 3 2 4 5 8 4 4 5 3 5 2 6 6 3 3 4 7 10 11 17 18 16 14 9 10 12 10 11 12 8 6 7 6 4 4 4 4 5 6 9
5 6 4 6 6 6 5 6 6 5 4 4 5 4 3 3 3 2 2 2 3 2 3 3 3 5 3 2 2 1 2 2 3 2 6 4 4 5 5 4 3 3 3 3 3 5 3 5 5 5 8 4 3 3 4 5 5 5 2 5 6 7 8 8 9 10 11 8 9 12 13 9 12 13 10 7 7 8 4 4 5 5 5 5 8
6 7 6 5 6 4 6 4 5 3 4 4 4 2 3 4 3 3 2 3 3 3 3 3 4 4 4 2 2 1 2 2 2 4 3 4 3 3 5 5 4 4 4 3 3 5 4 5 6 3 6 6 5 3 4 4 5 3 5 5 4 6 6 5 5 11 13 4 11 13 11 9 13 14 10 9 8 8 6 4 5 5 5 5 6
5 6 4 7 4 5 5 4 4 5 2 3 5 3 4 3 4 5 6 5 4 4 2 2 1 3 2 2 2 3 5 4 3 4 2 6 5 2 2 3 3 3 3 4 3 2 4 3 3 3 4 3 5 4 5 6 5 4 5 4 5 5 5 5 5 8 4 8 11 14 10 10 14 14 11 10 10 9 9 5 6 6 6 6 6
6 4 6 6 3 4 4 4 5 5 6 5 3 5 4 3 4 5 2 3 4 4 4 3 3 3 3 3 3 4 6 2 3 2 2 2 1 3 6 6 3 3 4 4 4 4 4 3 3 4 3 5 4 5 6 5 4 4 5 5 4 6 6 6 5 7 3 8 12 12 10 12 15 15 12 12 12 11 10 8 6 7 7 7 7
5 4 3 4 4 3 4 3 3 3 4 4 4 4 4 4 4 3 4 3 4 4 4 3 4 3 3 2 4 4 2 1 3 2 2 3 1 1 2 2 1 1 2 3 3 3 2 3 2 2 3 4 5 7 6 4 4 4 5 4 3 4 6 6 5 6 3 9 10 10 12 14 16 14 12 13 13 12 11 10 6 7 7 7 8
7 5 4 3 4 3 5 5 4 3 4 5 5 6 4 4 3 5 4 4 5 5 4 3 5 3 2 3 2 2 3 2 2 2 1 2 3 4 4 2 3 1 3 4 5 3 3 3 3 3 4 5 5 7 5 4 4 4 3 4 6 6 5 3 6 6 8 13 8 7 11 14 13 10 11 12 14 13 12 12 8 8 8 8 9
6 6 6 7 5 4 4 5 5 5 4 5 4 5 5 4 6 5 3 3 4 4 3 5 4 4 4 3 3 3 3 4 3 1 2 4 5 8 3 2 2 3 3 2 3 4 4 4 4 5 3 5 3 2 3 5 6 5 5 6 5 4 4 4 3 5 7 7 6 9 11 10 5 5 9 11 13 13 13 12 8 9 10 10 10
7 7 7 6 4 5 5 6 7 5 4 5 4 4 5 6 4 2 5 4 3 4 5 6 7 6 6 5 4 4 4 3 3 3 3 2 3 3 3 2 1 1 2 4 3 3 3 3 3 3 4 3 3 6 6 6 6 5 5 5 5 4 3 3 4 4 5 7 9 12 10 8 11 10 10 11 11 13 13 12 9 11 11 11 11
7 8 8 6 7 6 7 7 5 5 4 5 4 4 5 5 5 4 1 4 2 5 7 6 6 6 5 4 6 5 3 2 3 2 3 2 2 2 3 2 0 2 3 4 4 4 4 4 4 5 3 5 5 5 6 3 3 3 4 4 6 5 5 4 4 7 7 6 7 8 8 9 10 11 11 11 14 14 13 8 10 12 13 12 12
7 7 7 9 5 8 6 5 5 6 7 6 6 5 6 5 4 5 7 7 3 4 4 7 6 6 4 5 5 5 5 9 10 5 3 4 2 0 1 2 2 2 2 2 4 4 4 5 5 4 5 6 6 5 3 4 5 6 4 6 6 6 7 8 7 5 5 7 7 8 8 8 9 8 7 7 8 8 9 7 9 14 13 13 13
6 4 4 4 8 5 6 7 8 6 7 6 6 12 8 5 4 4 4 1 1 3 4 6 7 6 6 6 8 8 8 9 8 6 7 6 3 1 0 1 2 2 2 3 4 4 4 4 5 5 5 5 5 5 6 4 4 7 8 8 8 8 8 7 7 2 5 6 8 9 8 8 9 8 6 7 8 9 3 5 5 9 12 14 13
4 6 6 6 6 8 8 5 6 5 6 8 13 10 2 6 6 4 2 2 3 2 1 3 6 6 6 5 5 0 3 4 4 5 4 4 4 2 3 2 1 1 3 4 4 4 5 5 5 5 5 6 6 5 5 6 6 6 6 5 6 7 7 7 9 7 2 7 7 8 10 8 7 7 6 7 8 8 4 6 9 13 14 14 14
3 5 7 6 4 6 7 10 11 8 5 11 15 13 11 12 10 2 4 3 3 3 3 5 7 6 8 12 13 12 12 17 13 2 3 6 6 5 5 4 4 5 4 4 4 5 5 5 5 5 6 5 5 5 5 5 5 5 5 5 5 6 7 8 7 9 6 5 8 9 9 7 6 8 8 8 8 5 5 7 10 11 12 13 14
2 2 4 7 5 7 7 6 4 5 6 10 11 11 11 11 10 8 3 3 3 5 3 2 5 7 4 1 1 3 2 4 8 13 6 1 2 2 4 4 5 6 9 3 3 6 4 5 6 7 6 6 6 4 4 4 3 5 5 6 6 7 7 8 8 8 9 7 7 6 7 7 7 6 5 7 6 5 6 4 8 11 12 13 13
3 4 5 5 2 3 3 4 4 5 5 7 8 9 9 9 9 6 3 4 3 4 4 7 5 4 5 2 1 2 1 2 1 5 7 3 3 2 2 2 4 6 3 7 8 6 5 5 5 7 8 7 7 5 4 3 5 6 7 7 7 8 8 8 8 9 9 8 7 5 4 5 5 5 5 5 6 6 6 4 5 11 13 12 11
2 3 3 1 4 4 3 3 4 6 5 9 8 8 8 8 9 4 2 2 3 4 5 6 6 4 3 0 2 1 3 3 2 3 5 5 3 3 4 4 4 3 3 4 4 3 3 4 6 7 7 5 3 5 5 5 5 5 5 7 8 8 8 9 8 7 8 6 3 2 4 5 4 6 5 6 7 6 5 8 14 11 10 10 11
2 1 3 4 5 4 3 3 2 4 5 9 9 8 8 8 7 3 2 2 4 4 4 5 5 5 3 2 1 1 1 5 6 7 5 4 3 3 3 4 3 4 2 4 6 6 6 4 4 5 6 7 7 8 7 7 6 6 6 6 6 7 7 6 6 7 7 5 7 5 4 5 4 6 7 7 7 6 6 8 9 5 6 11 12
5 5 4 4 3 4 4 4 4 5 5 7 9 8 8 10 6 2 3 2 3 3 3 4 4 4 5 2 2 2 4 5 7 10 11 7 3 3 3 4 5 4 4 3 6 9 10 10 11 10 10 12 13 14 14 14 10 5 3 5 7 6 6 7 6 6 6 7 4 3 4 6 5 7 7 6 6 7 7 5 5 4 4 9 11
3 6 5 4 4 3 4 5 5 5 4 6 10 9 9 9 6 3 2 2 1 2 2 3 2 2 5 10 8 6 5 4 7 9 11 8 3 4 4 5 5 5 2 4 4 3 2 6 9 10 11 12 13 14 15 15 16 5 4 5 6 4 6 5 6 6 6 6 2 5 6 5 7 6 8 7 5 4 6 5 5 6 1 4 9
4 4 4 8 7 5 5 6 10 8 5 6 10 9 10 10 6 3 2 2 2 3 3 2 1 1 5 7 9 6 4 2 5 6 8 7 5 4 4 4 4 3 5 6 5 5 5 6 5 6 6 8 7 7 9 15 17 9 7 6 5 4 5 5 6 6 6 3 4 6 6 6 6 6 6 8 8 4 3 6 7 5 5 6 6
Wind_Direction
149 151 145 161 157 129 194 210 228 209 191 194 158 88 350 271 280 305 311 295 195 174 177 115 149 131 151 160 149 163 65 66 29 95 123 134 137 161 171 175 193 201 219 246 258 273 283 286 290 291 292 293 294 294 295 298 299 300 300 299 298 298 298 298 299 300 300 300 301 302 303 304 302 299 297 297 299 299 298 296 296 296 297 296 294
145 145 175 170 196 180 194 225 170 76 123 58 12 100 158 222 132 304 326 285 34 319 262 166 77 55 102 154 146 108 176 161 154 109 111 117 130 152 174 181 190 200 215 228 245 259 270 280 285 285 286 289 290 292 293 295 297 298 299 300 300 299 298 298 298 297 297 298 298 299 298 299 298 297 300 302 301 303 306 308 311 311 311 314 317
134 147 151 148 115 159 171 68 40 42 25 22 48 278 49 89 124 226 250 285 238 268 261 116 156 166 146 94 79 98 100 141 142 146 120 132 140 153 180 184 192 203 207 216 227 239 250 265 274 279 282 286 289 292 294 295 298 302 305 304 303 302 301 300 297 296 295 295 294 294 296 298 297 299 304 306 309 313 318 326 333 336 340 340 335
135 121 107 149 77 67 58 93 59 1 68 43 76 346 8 344 47 338 292 282 287 248 277 130 94 73 48 71 127 139 157 186 114 90 96 127 150 153 159 189 196 206 211 213 216 222 233 244 256 268 275 282 287 292 296 300 303 307 310 310 309 309 307 304 297 298 299 302 300 301 301 303 302 303 309 319 326 331 335 337 340 341 337 336 335
68 100 127 75 105 86 72 63 51 64 61 12 336 195 131 310 143 277 305 277 235 328 310 55 39 169 143 142 93 125 78 145 127 131 132 165 164 156 164 176 191 200 213 222 226 230 230 234 246 258 266 274 281 289 295 302 307 311 315 314 314 315 316 316 319 318 320 317 315 312 310 305 304 310 329 335 333 336 342 343 342 339 337 337 338
60 22 76 67 69 73 118 126 86 94 112 67 6 1 24 343 10 313 319 341 283 241 265 135 108 16 80 92 66 87 42 157 113 135 159 134 79 104 176 176 174 177 195 216 218 228 235 233 240 246 254 263 276 285 296 304 311 316 318 317 315 319 324 328 332 331 330 331 324 316 310 313 325 333 328 331 340 343 344 346 342 338 338 339 341
92 92 137 115 90 76 34 51 27 1 62 78 63 321 111 356 343 326 319 277 298 229 355 114 111 39 0 37 146 168 141 47 49 86 93 93 121 150 70 105 163 176 193 186 211 219 228 238 238 244 252 259 268 284 299 311 319 320 319 321 323 328 336 345 346 342 340 333 328 329 336 344 331 325 334 339 342 344 345 346 342 340 341 344 342
104 94 35 39 120 109 54 95 16 12 37 10 9 337 22 333 325 317 335 330 326 296 94 323 98 135 167 111 40 334 65 210 163 108 71 65 103 118 121 196 191 208 163 178 188 207 215 223 234 237 239 248 256 261 299 311 313 319 323 324 323 335 350 353 353 354 348 347 344 344 340 332 330 332 338 338 341 342 344 344 344 342 344 347 343
82 35 61 129 125 122 150 139 149 74 37 339 341 329 347 11 330 355 308 288 310 298 156 117 157 143 186 108 152 205 76 15 74 90 91 99 226 151 149 200 210 204 336 153 187 194 200 206 231 228 243 248 244 235 225 274 299 310 314 317 324 351 359 5 5 2 360 356 345 340 337 339 334 332 334 335 336 339 340 342 342 344 344 344 342
79 18 27 52 62 56 109 17 75 85 45 242 241 39 318 248 310 315 322 326 276 300 39 358 7 136 127 103 54 94 86 83 40 75 114 116 281 41 112 35 33 156 159 104 44 183 177 183 211 224 235 250 255 226 199 211 226 257 286 301 337 4 22 19 17 8 0 358 341 333 330 330 328 327 326 327 331 333 334 336 339 342 343 344 343
114 93 23 24 107 161 113 61 4 118 221 12 349 151 302 324 319 283 292 267 289 357 94 241 129 307 97 94 79 56 93 145 163 243 163 166 140 232 154 168 245 148 164 170 193 80 93 137 181 184 201 214 262 243 189 201 194 214 233 277 327 357 11 17 16 6 353 343 339 327 322 323 323 324 323 322 325 326 328 333 335 340 344 345 345
134 104 52 59 46 24 178 125 156 76 23 1 16 274 160 232 296 328 319 284 260 158 210 275 151 24 110 107 116 47 121 117 78 48 109 123 198 51 288 141 75 53 64 45 7 100 71 68 84 64 40 175 233 270 259 228 232 206 219 246 261 275 298 341 354 352 335 329 329 321 312 312 315 317 317 317 315 317 321 327 332 337 344 345 348
118 85 151 104 71 214 79 2 20 81 94 114 237 285 67 39 300 303 300 302 339 309 66 355 37 22 0 114 117 145 157 166 125 187 226 144 172 178 178 126 106 108 93 61 336 100 92 89 106 120 211 81 237 233 249 269 265 234 212 224 240 247 261 266 306 318 314 316 316 311 307 303 303 305 306 305 306 309 313 319 327 334 344 345 349
107 102 75 143 122 359 110 153 267 156 203 199 355 347 29 311 284 303 276 301 318 17 37 3 299 161 143 102 65 6 2 51 34 322 295 229 156 147 88 98 121 109 114 211 243 83 84 73 44 85 64 76 266 337 237 235 243 241 199 229 228 240 245 251 259 275 291 300 303 303 300 297 298 298 300 300 299 303 309 315 321 330 341 345 350
151 166 172 122 113 107 268 147 123 297 54 11 313 288 193 254 353 291 325 328 297 118 82 48 326 56 40 69 18 34 1 355 329 291 317 297 127 155 173 158 99 143 185 164 82 73 80 91 107 134 195 191 262 245 255 250 233 203 210 227 240 238 248 254 251 260 275 286 291 292 292 292 293 294 294 295 296 299 304 310 318 326 336 344 351
175 162 148 128 176 108 70 334 178 133 134 198 241 251 302 66 283 325 357 322 350 48 143 125 14 58 39 62 284 1 90 329 315 305 288 308 67 72 63 124 134 190 197 195 110 111 124 151 143 177 207 186 231 260 275 265 242 218 217 230 231 242 251 253 257 260 269 279 285 285 286 288 288 289 291 292 294 298 299 306 314 322 332 344 351
150 149 178 105 116 125 109 256 125 194 168 206 208 257 296 294 227 23 333 328 5 335 171 126 69 63 117 111 84 46 103 261 279 297 291 346 148 116 352 330 96 27 28 51 134 152 176 167 177 188 241 217 250 264 265 283 339 286 230 229 232 241 252 261 267 268 271 279 282 284 283 281 281 283 286 289 291 292 294 298 305 316 327 342 350
162 137 128 123 128 152 135 47 302 151 199 349 280 264 194 293 51 66 291 80 358 10 346 317 137 137 154 179 158 151 179 209 108 306 324 300 315 126 163 297 67 142 278 236 165 159 178 130 199 183 213 224 290 280 318 329 343 332 329 207 227 242 257 263 266 271 275 281 286 286 285 282 280 281 281 283 287 293 295 290 292 305 320 339 349
160 134 125 133 186 115 159 159 190 258 193 200 194 3 41 240 263 183 37 15 27 24 342 341 28 247 186 155 184 175 150 113 221 240 15 321 10 322 49 300 225 150 212 303 297 115 28 106 187 188 150 174 265 289 287 325 315 307 90 127 196 254 269 272 267 267 284 294 292 288 286 284 282 281 280 279 280 290 288 288 281 289 306 332 355
135 119 156 148 162 146 160 146 205 20 322 64 71 257 258 229 101 56 17 349 279 16 356 356 15 330 50 4 1 80 113 205 146 155 127 38 325 325 332 23 350 343 280 184 164 67 117 246 319 343 159 198 202 224 273 263 266 272 135 78 253 282 273 268 268 276 290 302 300 293 291 290 288 286 284 281 279 281 285 281 276 277 294 326 359
164 174 127 172 159 198 184 144 184 179 227 60 182 197 229 2 130 147 232 221 347 65 23 332 20 309 54 23 357 331 267 310 147 119 85 20 334 359 311 336 334 315 5 330 346 132 194 71 96 307 248 185 183 207 247 259 264 260 172 126 334 263 262 272 275 289 296 304 307 303 299 296 293 290 289 287 285 283 287 286 282 268 281 300 355
183 200 146 185 173 156 208 214 203 178 149 261 317 160 219 255 121 37 15 5 15 7 306 272 150 306 56 144 28 331 40 338 19 34 14 129 188 329 312 347 330 311 360 299 357 280 244 194 238 228 207 118 252 191 353 325 312 295 357 333 302 252 262 282 289 293 303 307 308 303 301 299 296 293 291 291 291 288 289 288 283 262 260 273 190
189 178 180 191 176 180 170 235 86 330 125 170 248 310 81 79 35 127 209 37 35 16 287 292 289 301 290 185 108 353 30 11 42 27 296 263 75 230 228 194 242 286 287 323 309 292 318 273 246 326 143 246 91 63 4 315 302 9 328 307 272 232 243 274 288 296 303 301 294 294 295 297 297 296 297 298 299 298 292 288 282 263 250 233 187
287 151 208 192 150 193 204 197 216 197 284 115 70 44 80 30 171 341 25 334 299 187 304 317 312 234 357 51 79 111 42 43 70 126 15 307 229 230 218 225 220 237 216 103 283 306 351 310 332 332 16 20 335 123 254 262 269 244 297 290 221 222 231 254 288 290 286 282 282 281 285 290 296 298 301 302 301 299 297 290 278 272 248 229 209
226 198 211 159 143 147 184 150 205 171 125 293 152 130 106 110 264 112 149 248 247 283 185 285 258 39 235 151 104 80 89 43 317 115 182 264 1 335 310 333 313 113 299 354 323 310 251 245 305 13 344 330 350 304 285 298 306 173 249 304 298 226 222 240 267 275 274 274 276 279 280 274 280 287 292 293 293 293 289 285 278 266 257 230 207
183 195 190 160 183 171 183 163 163 121 241 212 145 239 138 181 193 199 164 230 220 209 240 270 263 228 229 130 139 134 138 150 180 176 197 182 358 318 336 305 294 354 290 18 292 282 283 35 6 24 328 331 312 287 292 292 288 175 296 287 290 246 213 221 242 259 266 270 278 283 286 284 286 288 289 289 291 293 294 290 281 268 258 239 215
137 198 200 182 174 176 207 159 198 177 214 195 210 192 182 180 138 234 175 208 220 260 253 235 293 324 41 290 96 125 148 162 162 226 192 160 175 218 226 261 340 351 332 295 280 278 316 166 290 317 297 284 290 298 292 292 293 250 259 277 312 211 207 225 237 248 253 264 276 287 292 288 285 283 281 288 290 293 297 296 287 269 252 240 211
210 174 203 167 169 199 211 153 196 210 192 221 237 182 187 197 175 70 261 215 254 196 230 336 293 284 201 180 113 154 144 163 181 173 215 163 210 220 112 101 124 308 319 308 332 300 294 273 255 234 244 257 277 279 279 285 292 300 270 264 322 261 214 231 237 241 243 247 257 279 287 285 278 275 279 285 289 295 299 304 298 278 245 232 209
201 215 166 189 163 190 232 168 186 202 210 194 211 154 216 196 201 205 230 234 172 261 301 201 237 213 199 217 183 197 102 69 170 161 195 210 220 111 92 145 137 137 281 297 295 293 322 316 298 251 233 264 269 264 300 290 284 277 282 308 335 307 222 234 242 236 242 243 238 255 275 276 272 267 268 274 285 289 296 302 301 286 253 207 200
209 164 183 178 177 184 204 146 214 211 199 199 208 205 195 234 220 216 227 1 282 237 232 267 267 268 235 181 201 125 155 161 206 199 197 265 129 129 122 193 185 158 180 253 283 280 294 301 302 298 244 248 234 261 260 263 252 249 272 331 310 285 287 274 276 277 262 251 236 230 255 262 267 262 255 266 274 271 275 284 288 283 263 215 199
153 149 158 184 212 175 200 175 197 223 190 200 230 259 206 227 216 203 226 213 241 246 255 243 252 241 12 281 87 229 181 206 194 183 203 185 201 138 176 171 224 151 170 180 263 272 285 300 306 322 310 227 277 291 284 331 320 252 276 339 305 295 294 286 282 283 280 255 227 230 246 252 260 256 246 250 269 274 249 258 261 258 256 231 207
189 170 175 219 181 196 193 201 191 206 208 202 198 217 224 237 240 237 164 212 235 245 267 249 262 12 316 238 227 1 292 211 250 210 196 200 166 159 182 181 187 162 171 201 228 270 293 295 301 298 301 326 250 269 324 304 311 292 295 316 301 301 288 282 296 317 288 260 206 227 241 246 256 255 247 246 260 270 255 224 238 241 238 235 205
192 191 192 198 205 189 210 181 184 200 222 219 200 168 219 219 202 239 170 217 214 235 231 269 282 203 206 229 259 289 312 300 276 250 197 180 201 168 163 183 176 181 178 195 231 261 276 265 265 291 317 317 305 329 307 323 320 315 331 295 299 290 285 297 315 312 309 208 208 229 239 247 253 255 251 250 255 263 263 217 225 230 232 230 208
209 187 203 209 207 197 203 202 185 180 204 216 180 201 224 206 241 224 216 194 228 239 226 256 228 258 232 212 248 232 211 224 245 261 69 1 294 165 195 234 181 179 168 176 229 262 285 278 282 303 275 301 318 349 326 308 288 310 299 311 301 308 310 317 323 308 322 196 219 233 239 245 254 255 254 252 254 258 264 239 212 219 225 221 208
202 198 192 224 206 191 235 173 179 191 202 222 216 199 214 226 222 249 256 245 226 225 229 218 229 230 249 236 234 227 242 219 240 251 268 180 126 141 218 227 203 163 194 211 190 222 265 290 320 308 335 339 314 305 292 282 300 297 298 291 309 323 318 313 316 317 149 214 228 242 247 248 254 257 253 256 256 254 258 256 206 212 213 215 211
222 200 225 234 203 186 211 238 191 224 167 200 222 234 196 213 222 244 236 198 236 257 250 229 225 240 252 232 243 266 269 328 253 243 243 210 266 306 27 312 106 14 167 226 217 265 277 289 286 294 288 290 281 273 271 276 283 291 279 281 287 291 287 299 314 327 307 268 257 262 256 255 259 262 254 256 259 256 252 253 219 201 206 209 210
220 212 175 239 249 179 210 210 223 219 233 213 216 231 211 233 245 237 231 225 217 220 236 234 250 238 231 239 248 251 267 265 291 230 213 17 353 347 269 195 93 311 259 221 232 234 262 272 276 259 266 262 262 265 267 299 296 279 283 283 283 271 273 274 310 310 298 312 311 290 285 278 275 267 253 258 263 261 254 249 223 196 201 205 208
223 226 194 199 207 198 202 234 227 215 218 232 222 242 237 206 227 237 257 261 265 253 239 244 235 238 245 240 249 248 240 215 235 223 136 184 210 222 236 45 213 219 247 322 307 274 264 258 260 272 256 271 284 301 305 290 278 283 293 288 280 280 277 287 290 316 327 326 330 321 303 306 323 291 270 267 273 270 258 247 214 194 200 201 205
247 228 232 186 191 203 204 224 238 228 224 231 240 228 241 240 208 195 249 256 265 263 256 244 245 223 219 227 213 222 246 239 238 235 217 216 230 243 223 214 343 6 287 258 263 288 302 314 306 294 288 288 319 297 278 260 270 269 275 298 301 295 289 291 295 314 326 326 313 294 296 322 339 331 310 305 289 271 262 247 201 198 196 198 203
232 250 251 233 188 209 210 226 232 241 224 231 241 254 246 239 244 203 80 281 255 282 282 281 268 267 251 235 253 242 224 239 246 275 273 245 65 4 23 47 243 321 343 335 329 328 309 304 292 296 305 291 277 262 275 298 322 313 294 293 302 322 322 323 326 328 323 314 308 314 326 337 328 318 322 316 303 285 260 241 193 198 195 195 200
247 240 237 254 242 197 216 206 218 231 238 226 232 235 231 243 252 251 182 223 227 256 276 281 269 253 254 254 249 257 228 218 213 209 125 116 113 214 340 357 322 304 295 309 300 301 301 281 282 289 288 288 279 285 331 346 332 305 322 350 337 333 337 325 317 319 310 316 312 327 334 333 322 319 314 305 296 291 265 188 190 197 196 194 197
329 344 330 318 293 266 206 211 213 230 238 238 257 213 211 234 240 251 278 82 311 292 293 299 291 290 299 283 260 246 183 193 189 157 150 142 154 289 98 65 338 314 303 293 285 276 281 293 290 291 289 297 328 338 337 322 345 359 350 348 337 329 322 313 305 318 324 322 336 324 319 323 318 304 298 306 310 297 326 152 197 189 197 196 196
338 346 346 335 307 298 292 260 232 248 357 7 5 21 296 212 193 224 228 203 201 201 287 302 298 297 295 286 289 276 210 185 171 164 135 145 168 180 212 216 258 288 291 293 302 322 317 308 313 310 314 324 322 335 329 347 1 346 331 328 321 321 320 323 316 313 329 345 322 316 312 311 304 300 301 297 293 302 344 189 199 191 188 192 195
334 344 335 327 326 316 327 358 6 50 70 9 5 14 28 21 10 319 224 221 235 222 220 246 277 309 348 5 4 9 6 345 338 246 171 184 191 205 220 229 243 251 240 240 273 288 289 299 303 294 298 298 319 331 336 340 330 320 318 319 308 312 313 307 303 301 311 324 308 302 297 299 304 300 293 284 277 282 318 195 204 191 192 193 195
340 13 310 297 320 45 64 86 85 55 55 7 7 12 17 24 14 354 324 326 308 308 307 312 61 90 93 112 315 108 141 11 2 315 286 196 161 314 300 284 275 258 256 249 203 223 265 279 284 299 297 303 301 306 325 309 311 309 322 315 313 307 299 294 292 300 303 299 286 283 291 301 297 295 309 309 312 325 337 156 195 202 204 202 197
202 190 234 259 21 66 45 97 100 89 65 14 6 16 21 18 12 2 354 347 314 291 341 37 53 46 98 132 181 184 125 100 326 319 334 14 25 339 316 280 265 276 228 214 234 225 204 227 255 271 280 291 287 297 304 327 331 322 316 309 314 303 296 290 295 290 286 284 274 283 288 292 302 324 309 310 331 334 340 357 229 220 215 208 193
321 210 226 127 83 106 105 56 61 70 46 8 8 10 18 5 356 327 327 317 322 17 29 52 73 25 347 232 236 104 148 153 70 330 359 352 12 326 282 285 281 255 183 215 205 234 226 231 233 244 262 275 301 317 306 298 290 288 286 289 290 288 294 295 285 273 273 265 278 311 294 313 321 320 320 326 330 323 319 320 296 271 232 203 202
298 237 145 133 114 118 126 101 83 92 69 28 8 4 4 3 331 320 331 25 37 12 37 62 58 34 11 309 307 231 138 72 6 354 17 335 326 310 327 313 299 302 254 209 214 211 234 280 306 305 304 301 294 287 285 288 292 281 288 289 290 292 289 297 312 322 311 348 350 350 326 318 329 324 323 322 321 313 315 300 294 312 200 198 208
251 220 182 138 162 148 125 95 74 66 52 21 18 11 6 2 359 357 8 30 27 19 37 47 56 41 32 355 266 238 79 53 9 2 3 352 338 346 323 314 307 303 311 304 211 232 251 256 264 278 282 283 284 282 281 275 261 277 331 302 279 286 305 313 309 317 328 332 327 12 337 318 339 331 316 315 323 312 301 308 332 2 213 204 215
311 254 187 173 173 163 128 118 103 93 68 26 23 12 13 8 350 352 350 19 347 3 48 58 69 83 48 50 51 39 51 35 10 14 3 347 354 351 326 324 316 306 333 354 344 338 278 318 318 302 290 287 284 281 275 270 270 230 197 236 269 304 299 301 307 315 318 304 326 16 352 324 333 328 317 314 307 297 316 306 338 334 335 238 237
329 303 205 186 177 156 131 109 113 106 84 48 31 12 19 21 5 336 12 15 330 340 9 349 99 132 104 59 61 66 76 52 36 31 20 4 359 344 345 311 303 323 38 351 343 341 338 322 311 315 306 291 283 278 273 264 259 225 198 236 278 283 287 297 305 307 308 317 355 20 338 326 331 328 327 322 314 301 288 344 324 316 338 322 280